Weather History for KDED - October, 2012

Change the Weather History Date:

Sunday, October 28, 2012

  Actual Average Record
Temperature  
Mean Temperature 68 °F -  
Max Temperature 75 °F 80 °F 84 °F (2014)
Min Temperature 59 °F 57 °F 53 °F (2013)
Cooling Degree Days 2    
Growing Degree Days 18 (Base 50)    
Moisture  
Dew Point 58 °F    
Average Humidity 75    
Maximum Humidity 94    
Minimum Humidity 53    
Precipitation  
Precipitation 0.00 in - - ()
Sea Level Pressure  
Sea Level Pressure 29.72 in    
Wind  
Wind Speed 9 mph ()    
Max Wind Speed 15 mph    
Max Gust Speed 22 mph    
Visibility 8.7 miles    
Events      
Averages and records for this station are not official NWS values.
T = Trace of Precipitation, MM = Missing Value Source: Averaged Metar Reports

Daily Weather History Graph

Daily Weather History Graph

Search for Another Location

Airport or City:

Trip Planner

Search our weather history database for the weather conditions in past years. The results will help you decide how hot, cold, wet, or windy it might be!

Date:

Astronomy

Oct. 28, 2012 Rise Set
Actual Time 7:35 AM EDT 6:42 PM EDT
Civil Twilight 7:10 AM EDT 7:06 PM EDT
Nautical Twilight 6:42 AM EDT 7:34 PM EDT
Astronomical Twilight 6:15 AM EDT 8:02 PM EDT
Moon 5:58 PM EDT (10/28) 6:29 AM EDT (10/28)
Length of Visible Light 11h 55m
Length of Day
11h 06m
Waxing Gibbous, 99% of the Moon is Illuminated
Oct 28
Waxing Gibbous
Oct 29
Full
Nov 6
Last Quarter
Nov 13
New
Nov 20
First Quarter

Hourly Weather History & Observations

Time (EDT) Temp. Dew Point Humidity Pressure Visibility Wind Dir Wind Speed Gust Speed Precip Events Conditions
12:55 AM 68.0 °F 60.8 °F 78% 29.68 in 10.0 mi West 8.1 mph - N/A   Clear
1:35 AM 66.2 °F 60.8 °F 83% 29.68 in 10.0 mi WNW 9.2 mph - N/A   Clear
1:55 AM 66.2 °F 60.8 °F 83% 29.67 in 9.0 mi WNW 9.2 mph - N/A   Clear
2:15 AM 66.2 °F 60.8 °F 83% 29.67 in 9.0 mi West 10.4 mph - N/A   Clear
2:55 AM 66.2 °F 60.8 °F 83% 29.68 in 9.0 mi WNW 9.2 mph - N/A   Clear
3:15 AM 66.2 °F 60.8 °F 83% 29.68 in 9.0 mi West 8.1 mph - N/A   Clear
3:35 AM 66.2 °F 60.8 °F 83% 29.68 in 9.0 mi West 6.9 mph - N/A   Clear
3:55 AM 64.4 °F 60.8 °F 88% 29.68 in 8.0 mi West 6.9 mph - N/A   Clear
4:15 AM 64.4 °F 60.8 °F 88% 29.67 in 8.0 mi West 9.2 mph - N/A   Clear
4:35 AM 64.4 °F 60.8 °F 88% 29.67 in 8.0 mi West 8.1 mph - N/A   Clear
4:55 AM 64.4 °F 60.8 °F 88% 29.68 in 9.0 mi WNW 8.1 mph - N/A   Clear
5:55 AM 62.6 °F 60.8 °F 94% 29.69 in 7.0 mi West 5.8 mph - N/A   Clear
6:15 AM 62.6 °F 59.0 °F 88% 29.70 in 8.0 mi West 6.9 mph - N/A   Clear
6:35 AM 62.6 °F 59.0 °F 88% 29.70 in 8.0 mi WNW 8.1 mph - N/A   Clear
6:55 AM 62.6 °F 59.0 °F 88% 29.71 in 7.0 mi WNW 6.9 mph - N/A   Clear
7:15 AM 62.6 °F 59.0 °F 88% 29.71 in 7.0 mi West 6.9 mph - N/A   Clear
7:35 AM 60.8 °F 57.2 °F 88% 29.71 in 8.0 mi West 8.1 mph - N/A   Clear
7:55 AM 60.8 °F 57.2 °F 88% 29.72 in 7.0 mi WNW 8.1 mph - N/A   Clear
8:15 AM 60.8 °F 57.2 °F 88% 29.73 in 7.0 mi WNW 8.1 mph - N/A   Clear
8:35 AM 62.6 °F 57.2 °F 82% 29.73 in 7.0 mi West 9.2 mph - N/A   Clear
8:55 AM 62.6 °F 57.2 °F 82% 29.73 in 7.0 mi West 10.4 mph - N/A   Partly Cloudy
9:15 AM 62.6 °F 57.2 °F 82% 29.74 in 8.0 mi West 10.4 mph 17.3 mph N/A   Partly Cloudy
9:35 AM 64.4 °F 57.2 °F 77% 29.74 in 8.0 mi WNW 11.5 mph 17.3 mph N/A   Partly Cloudy
9:55 AM 64.4 °F 57.2 °F 77% 29.74 in 9.0 mi WNW 10.4 mph 17.3 mph N/A   Clear
10:15 AM 64.4 °F 57.2 °F 77% 29.74 in 9.0 mi West 9.2 mph - N/A   Clear
10:35 AM 66.2 °F 57.2 °F 73% 29.75 in 8.0 mi West 11.5 mph - N/A   Clear
10:55 AM 66.2 °F 57.2 °F 73% 29.74 in 9.0 mi West 11.5 mph - N/A   Clear
11:15 AM 68.0 °F 57.2 °F 68% 29.74 in 10.0 mi West 11.5 mph 21.9 mph N/A   Clear
11:35 AM 69.8 °F 57.2 °F 64% 29.74 in 10.0 mi WNW 11.5 mph - N/A   Clear
11:55 AM 69.8 °F 57.2 °F 64% 29.74 in 10.0 mi West 12.7 mph - N/A   Clear
12:15 PM 69.8 °F 57.2 °F 64% 29.74 in 9.0 mi West 12.7 mph 19.6 mph N/A   Clear
12:55 PM 71.6 °F 57.2 °F 60% 29.72 in 10.0 mi West 9.2 mph 19.6 mph N/A   Clear
1:15 PM 71.6 °F 57.2 °F 60% 29.71 in 10.0 mi West 10.4 mph 21.9 mph N/A   Clear
1:35 PM 73.4 °F 57.2 °F 57% 29.71 in 10.0 mi West 12.7 mph 17.3 mph N/A   Clear
1:55 PM 73.4 °F 57.2 °F 57% 29.70 in 10.0 mi West 11.5 mph 16.1 mph N/A   Clear
2:15 PM 73.4 °F 57.2 °F 57% 29.70 in 10.0 mi West 10.4 mph - N/A   Clear
2:55 PM 73.4 °F 57.2 °F 57% 29.68 in 10.0 mi West 12.7 mph 19.6 mph N/A   Clear
3:15 PM 75.2 °F 57.2 °F 53% 29.68 in 10.0 mi West 13.8 mph - N/A   Partly Cloudy
3:35 PM 73.4 °F 57.2 °F 57% 29.67 in 9.0 mi West 10.4 mph 16.1 mph N/A   Scattered Clouds
3:55 PM 73.4 °F 57.2 °F 57% 29.68 in 10.0 mi West 10.4 mph 16.1 mph N/A   Partly Cloudy
4:15 PM 73.4 °F 57.2 °F 57% 29.67 in 8.0 mi West 10.4 mph 16.1 mph N/A   Clear
4:35 PM 73.4 °F 57.2 °F 57% 29.68 in 10.0 mi West 15.0 mph - N/A   Partly Cloudy
4:55 PM 73.4 °F 57.2 °F 57% 29.68 in 9.0 mi West 11.5 mph 18.4 mph N/A   Clear
5:15 PM 71.6 °F 57.2 °F 60% 29.68 in 10.0 mi West 10.4 mph 18.4 mph N/A   Mostly Cloudy
5:55 PM 69.8 °F 57.2 °F 64% 29.70 in 9.0 mi West 10.4 mph 20.7 mph N/A   Partly Cloudy
6:15 PM 66.2 °F 57.2 °F 73% 29.71 in 8.0 mi WSW 10.4 mph 19.6 mph N/A   Clear
6:35 PM 66.2 °F 57.2 °F 73% 29.71 in 9.0 mi WSW 8.1 mph 16.1 mph N/A   Clear
6:55 PM 64.4 °F 57.2 °F 77% 29.72 in 9.0 mi WSW 11.5 mph - N/A   Clear
7:15 PM 64.4 °F 57.2 °F 77% 29.73 in 8.0 mi West 8.1 mph - N/A   Clear
7:35 PM 62.6 °F 57.2 °F 82% 29.73 in 8.0 mi West 10.4 mph 16.1 mph N/A   Clear
7:55 PM 62.6 °F 57.2 °F 82% 29.74 in 8.0 mi West 8.1 mph - N/A   Partly Cloudy
8:15 PM 64.4 °F 57.2 °F 77% 29.74 in 8.0 mi West 11.5 mph 17.3 mph N/A   Mostly Cloudy
8:35 PM 62.6 °F 57.2 °F 82% 29.75 in 9.0 mi West 12.7 mph 17.3 mph N/A   Overcast
8:55 PM 62.6 °F 57.2 °F 82% 29.75 in 8.0 mi West 11.5 mph 17.3 mph N/A   Overcast
9:15 PM 62.6 °F 57.2 °F 82% 29.77 in 8.0 mi West 11.5 mph 17.3 mph N/A   Overcast
9:35 PM 62.6 °F 55.4 °F 77% 29.78 in 8.0 mi WNW 6.9 mph - N/A   Overcast
9:55 PM 62.6 °F 55.4 °F 77% 29.77 in 9.0 mi West 11.5 mph - N/A   Overcast
10:15 PM 62.6 °F 55.4 °F 77% 29.78 in 8.0 mi West 6.9 mph - N/A   Overcast
10:35 PM 62.6 °F 55.4 °F 77% 29.79 in 8.0 mi WNW 12.7 mph 21.9 mph N/A   Overcast
10:55 PM 60.8 °F 53.6 °F 77% 29.79 in 9.0 mi WNW 11.5 mph - N/A   Overcast
11:15 PM 60.8 °F 53.6 °F 77% 29.79 in 10.0 mi WNW 11.5 mph - N/A   Overcast
11:55 PM 59.0 °F 53.6 °F 82% 29.80 in 10.0 mi West 10.4 mph 16.1 mph N/A   Overcast